Regional Weather Roundup
Issued by NWS

Home | Current Version | Previous Version | Text Only | Print | Product List | Glossary On
Versions: 1 2 3 4 5 6 7 8 9 10 11 12 13 14 15 16 17 18 19 20 21 22 23 24 25 26 27 28 29 30 31 32 33 34 35 36 37 38 39 40 41 42 43 44 45 46 47 48 49 50
000
ASUS43 KMKX 030120
RWRWI

WISCONSIN REGIONAL WEATHER ROUNDUP
NATIONAL WEATHER SERVICE MILWAUKEE/SULLIVAN WI
700 PM CST MON MAR 02 2015

NOTE: "FAIR" INDICATES FEW OR NO CLOUDS BELOW 12,000 FEET WITH NO
SIGNIFICANT WEATHER AND/OR OBSTRUCTIONS TO VISIBILITY.

WIZ001-002-006>008-014>016-023>028-030200-
NORTHWEST WISCONSIN

CITY           SKY/WX    TMP DP  RH WIND       PRES   REMARKS
SUPERIOR ARPT  CLEAR     22   5  47 SW7       30.17S WCI  13
ASHLAND        CLEAR     20  -1  40 S6        30.19F WCI  12
HAYWARD        CLEAR     17   3  54 S6        30.17F WCI   9
SIREN          PTCLDY    22   6  50 S10       30.17F WCI  11
CUMBERLAND     CLOUDY    21   9  58 S9        30.17F WCI  11
RICE LAKE      CLOUDY    22   8  55 SE9       30.20F WCI  12
CHETEK         MOCLDY    22   8  54 SE7       30.20F WCI  14
LADYSMITH      PTCLDY    21   3  46 S5        30.21F WCI  14
EAU CLAIRE     CLOUDY    24   7  48 S9        30.23F WCI  14
MENOMONIE      CLOUDY    24   8  50 S6        30.23S WCI  17
NEW RICHMOND   CLOUDY    21  10  61 S8        30.21F WCI  12
OSCEOLA        CLOUDY    23  10  58 S12       30.23F WCI  11
$$

WIZ003>005-009-010-017-018-030200-
NORTH CENTRAL WISCONSIN

CITY           SKY/WX    TMP DP  RH WIND       PRES   REMARKS
MANITOWISH WTR CLEAR     16  -1  47 S3        30.16F
ARBOR VITAE    FAIR      18  -1  45 S7        30.17F WCI   8
WOODRUFF       FAIR      18  -1  45 S7        30.17F WCI   8
RHINELANDER    CLEAR     19   3  49 S8        30.20F WCI   9
EAGLE RIVER    CLEAR     20  -1  39 CALM      30.17F
LAND O LAKES   CLEAR     18  -1  43 CALM      30.17F
PHILLIPS       PTCLDY    17   2  52 S6        30.17F WCI   8
TOMAHAWK       CLEAR     14   4  63 CALM      30.21F
MEDFORD        PTCLDY    19   3  51 SE5       30.19F WCI  12
MERRILL        CLEAR     15   3  59 CALM      30.23F
$$

WIZ029-030-035-036-043>047-030200-
CENTRAL WISCONSIN

CITY           SKY/WX    TMP DP  RH WIND       PRES   REMARKS
WAUSAU         PTCLDY    21   4  47 SE5       30.22F WCI  15
MOSINEE        CLEAR     19   0  42 CALM      30.24F
MARSHFIELD     MOCLDY    22   8  55 SE3       30.22F
STEVENS POINT  PTCLDY    21   5  50 SE3       30.26F
WAUPACA        MOCLDY    27  11  51 SE6       30.28F WCI  20
WAUTOMA        MOCLDY    26   9  48 S7        30.29F WCI  18
WISC RAPIDS    MOCLDY    24   3  40 S3        30.27F
CAMP DOUGLAS   CLOUDY    27  10  50 SE7       30.26F WCI  19
$$

WIZ011>013-019>022-031-037>040-048>050-030200-
NORTHEAST WISCONSIN

CITY           SKY/WX    TMP DP  RH WIND       PRES   REMARKS
ANTIGO         CLEAR     11  -1  58 CALM      30.22F
SHAWANO        CLEAR     23   6  48 CALM      30.29F
OCONTO         CLEAR     21  10  62 CALM      30.31F
STURGEON BAY   CLEAR     19  10  68 S5        30.33S WCI  13
GREEN BAY      PTCLDY    23  13  65 S6        30.31F WCI  16
MANITOWOC      MOCLDY    23  16  74 SW7       30.33F WCI  15
APPLETON       MOCLDY    19  10  68 VRB5      30.30F WCI  13
CLINTONVILLE   PTCLDY    23   9  54 S6        30.28F WCI  16
OSHKOSH        CLOUDY    24  13  62 S8        30.31F WCI  15
$$

WIZ032>034-041-042-053>061-030200-
SOUTHWEST WISCONSIN

CITY           SKY/WX    TMP DP  RH WIND       PRES   REMARKS
LA CROSSE      CLOUDY    27  11  51 S7        30.28S WCI  19
SPARTA         CLOUDY    25  11  56 CALM      30.27S
VIROQUA        CLOUDY    24  14  65 S8        30.24S WCI  15
BOSCOBEL       CLOUDY    26  13  57 VRB3      30.31F
PRAIRIE DU CHI CLOUDY    26  11  52 CALM      30.30F
PLATTEVILLE    CLOUDY    24  18  78 SE7       30.30F WCI  16
$$

WIZ056-057-062-063-064-067-068-030200-
SOUTH CENTRAL WISCONSIN

CITY           SKY/WX    TMP DP  RH WIND       PRES   REMARKS
REEDSBURG      CLOUDY    25  13  60 S9        30.28S WCI  15
BARABOO/DELLS  CLOUDY    25  11  55 S10       30.28S WCI  15
LONE ROCK      CLOUDY    25  12  58 S7        30.31F WCI  17
MINERAL POINT  CLOUDY    27  16  63 S8        30.28F WCI  18
MADISON        CLOUDY    25  11  55 S7        30.31F WCI  17
MIDDLETON      CLOUDY    26  12  55 S7        30.31F WCI  18
WATERTOWN      CLOUDY    25  13  60 S6        30.31F WCI  18
MONROE         CLOUDY    25  18  74 S9        30.30S WCI  15
JANESVILLE     CLOUDY    27  16  63 VRB6      30.33F WCI  20
$$

WIZ051-052-058>065-066-070>072-030200-
SOUTHEAST WISCONSIN

CITY           SKY/WX    TMP DP  RH WIND       PRES   REMARKS
MILWAUKEE      CLOUDY    25  12  58 S7        30.35F WCI  17
WAUKESHA       CLOUDY    25  10  54 S5        30.33F WCI  19
MILWAUKEE/TIMM CLEAR     27  10  50 S6        30.35F WCI  20
RACINE         MOCLDY    26  15  63 S9        30.36F WCI  17
BURLINGTON     MOCLDY    22  11  64 CALM      30.34S
KENOSHA        CLOUDY    25  16  68 SE7       30.34F WCI  17
FOND DU LAC    CLOUDY    25  11  55 S7        30.31F WCI  17
SHEBOYGAN      CLOUDY    24  15  68 S9        30.33F WCI  14
WEST BEND      CLOUDY    25  14  63 SE3       30.31F
JUNEAU         CLOUDY    24  10  53 S7        30.31F WCI  16
$$

LSZ147-162-030200-
LAKE SUPERIOR

STATION/POSITION TIME  TEMP    WIND        PRES    WAVE
                       AIR SEA DIR/SP/G            HT/PER
                 (UTC) (F)     (DEG/KT/KT) (MB)    (FT/S)
DEVILS ISLAND    0100   25     180/  6/  7 1022.7F
PORT WING        0040   25     180/  8/ 11 1022.0F
SAXON HARBOR     0000   28      CALM  /  8 1022.7F
$$

LMZ867-665-643>646-030200-
LAKE MICHIGAN

STATION/POSITION TIME  TEMP    WIND        PRES    WAVE
                       AIR SEA DIR/SP/G            HT/PER
                 (UTC) (F)     (DEG/KT/KT) (MB)    (FT/S)
NORTHPORT PIER   0100   23     160/  5/  9 1026.4F
SISTER BAY       0013   22     180/ 10/ 11   N/A
KEWAUNEE LAKESHO 0000          210/  9/ 12   N/A
SHEBOYGAN LAKESH 0100   26     180/ 15/ 16 1028.5F
PORT WASHINGTON  0000   27     170/ 13/ 19 1028.1
MILWAUKEE LAKESH 0100   26     190/  7/  9   N/A
KENOSHA   LAKESH 0100   27     160/ 10/ 13 1027.4F
$$

TC  - TEMPERATURE IN CELSIUS
VSB - VISIBILITY IN STATUTE MILES
WCI - WIND CHILL INDEX
HX  - HEAT INDEX




USA.gov is the U.S. government's official web portal to all federal, state and local government web resources and services.